Date String (YYYY-MM-DD hh:mm:ss) UTC,Instrument flags,Ambient pressure (hPa),Sample flow (lpm),Bypass flow (lpm),Sample temperature (°C),Ambient temperature (°C),ASC tube jacket temperature (°C),LED temperature (°C),Box temperature (°C),Sample RH (%),Span deviation,Mass concentration (μg/m³),Mass concentration (μg/m³),Mass concentration (μg/m³)
DateTimeUTC,F1_M11,P_M11,Q1_M11,Q2_M11,T1_M11,T2_M11,T3_M11,T4_M11,T5_M11,U1_M11,ZSPAN_M11,X2_M11,X0_M11,X1_M11
2022-10-20 20:00:00,,0824.4,5.02,0.00,29.7,26.5,00.0,38.4,31.4,06.3,0000.0,0002.07,0007.02,0001.12
2022-10-20 20:01:00,,0824.4,5.00,0.00,29.6,26.8,00.0,38.4,31.3,06.2,0000.0,0002.05,0007.58,0001.12
2022-10-20 20:02:00,,0824.3,5.00,0.00,29.6,27.2,00.0,38.4,31.3,06.3,0000.0,0002.09,0007.95,0001.13
2022-10-20 20:03:00,,0824.3,4.99,0.00,29.6,27.4,00.0,38.4,31.3,06.3,0000.0,0002.08,0008.00,0001.15
2022-10-20 20:04:00,,0824.3,5.00,0.00,29.6,27.7,00.0,38.4,31.4,06.2,0000.0,0002.10,0008.26,0001.16
2022-10-20 20:05:00,,0824.3,4.99,0.00,29.6,27.9,00.0,38.4,31.4,06.3,0000.0,0002.12,0008.31,0001.16
2022-10-20 20:06:00,,0824.2,4.99,0.00,29.6,28.1,00.0,38.4,31.5,06.4,0000.0,0002.07,0008.30,0001.15
2022-10-20 20:07:00,,0824.5,4.99,0.00,29.6,28.3,00.0,38.4,31.5,06.3,0000.0,0002.05,0008.19,0001.15
2022-10-20 20:08:00,,0824.2,5.02,0.00,29.7,28.4,00.0,38.4,31.5,06.6,0000.0,0002.12,0008.05,0001.15
2022-10-20 20:09:00,,0824.2,5.02,0.00,29.7,28.5,00.0,38.4,31.6,06.5,0000.0,0002.18,0008.59,0001.17
2022-10-20 20:10:00,,0824.2,5.00,0.00,29.7,28.6,00.0,38.5,31.6,06.4,0000.0,0002.24,0008.69,0001.18
2022-10-20 20:11:00,,0824.1,5.00,0.00,29.8,28.6,00.0,38.5,31.7,06.6,0000.0,0002.24,0008.93,0001.18
2022-10-20 20:12:00,,0824.1,5.01,0.00,29.8,27.6,00.0,38.5,31.6,06.7,0000.0,0002.27,0008.84,0001.20
2022-10-20 20:13:00,,0824.1,4.99,0.00,29.7,26.2,00.0,38.4,31.5,06.9,0000.0,0002.30,0008.37,0001.20
2022-10-20 20:14:00,,0824.1,5.01,0.00,29.7,26.2,00.0,38.4,31.4,06.6,0000.0,0002.31,0008.81,0001.21
2022-10-20 20:15:00,,0824.1,5.02,0.00,29.6,26.5,00.0,38.3,31.3,06.5,0000.0,0002.32,0008.83,0001.21
2022-10-20 20:16:00,,0824.1,4.99,0.00,29.6,26.8,00.0,38.3,31.2,06.2,0000.0,0002.35,0008.80,0001.21
2022-10-20 20:17:00,,0824.0,5.02,0.00,29.5,27.2,00.0,38.3,31.2,06.5,0000.0,0002.37,0008.82,0001.22
2022-10-20 20:18:00,,0824.0,5.02,0.00,29.5,27.5,00.0,38.3,31.3,06.4,0000.0,0002.37,0008.99,0001.21
2022-10-20 20:19:00,,0824.0,5.01,0.00,29.5,27.8,00.0,38.3,31.4,06.6,0000.0,0002.40,0010.08,0001.21
2022-10-20 20:20:00,,0824.0,4.99,0.00,29.6,28.0,00.0,38.3,31.3,06.3,0000.0,0002.33,0009.43,0001.21
2022-10-20 20:21:00,,0824.0,5.00,0.00,29.6,28.1,00.0,38.3,31.4,06.5,0000.0,0002.25,0009.35,0001.20
2022-10-20 20:22:00,,0823.9,5.00,0.00,29.6,28.3,00.0,38.3,31.4,06.8,0000.0,0002.16,0009.53,0001.18
2022-10-20 20:23:00,,0823.9,5.00,0.00,29.6,28.4,00.0,38.4,31.5,06.3,0000.0,0002.14,0009.31,0001.16
2022-10-20 20:24:00,,0823.8,5.01,0.00,29.7,28.5,00.0,38.4,31.6,06.3,0000.0,0002.04,0009.48,0001.15
2022-10-20 20:25:00,,0823.8,5.02,0.00,29.7,28.6,00.0,38.4,31.7,06.1,0000.0,0002.00,0009.21,0001.14
2022-10-20 20:26:00,,0823.8,4.99,0.00,29.8,28.7,00.0,38.5,31.7,06.1,0000.0,0001.97,0009.07,0001.13
2022-10-20 20:27:00,,0823.7,5.00,0.00,29.8,28.8,00.0,38.5,31.8,06.2,0000.0,0001.92,0009.15,0001.13
2022-10-20 20:28:00,,0823.7,5.00,0.00,29.8,28.4,00.0,38.5,31.8,06.4,0000.0,0001.88,0009.28,0001.12
2022-10-20 20:29:00,,0823.7,4.98,0.00,29.8,26.9,00.0,38.5,31.6,06.3,0000.0,0001.87,0009.76,0001.12
2022-10-20 20:30:00,,0823.7,5.01,0.00,29.7,26.1,00.0,38.4,31.5,06.3,0000.0,0001.82,0008.84,0001.12
2022-10-20 20:31:00,,0823.7,5.01,0.00,29.7,26.3,00.0,38.4,31.4,06.4,0000.0,0001.80,0009.17,0001.10
2022-10-20 20:32:00,,0823.7,5.03,0.00,29.6,26.6,00.0,38.3,31.3,06.4,0000.0,0001.80,0009.33,0001.09
2022-10-20 20:33:00,,0823.7,4.98,0.00,29.6,27.0,00.0,38.3,31.2,06.1,0000.0,0001.87,0010.13,0001.08
2022-10-20 20:34:00,,0823.7,5.03,0.00,29.5,27.3,00.0,38.3,31.2,06.0,0000.0,0001.89,0009.82,0001.06
2022-10-20 20:35:00,,0823.7,5.03,0.00,29.5,27.6,00.0,38.3,31.3,05.7,0000.0,0001.90,0009.63,0001.04
2022-10-20 20:36:00,,0823.7,4.97,0.00,29.6,27.8,00.0,38.3,31.3,05.7,0000.0,0001.91,0009.98,0001.02
2022-10-20 20:37:00,,0823.7,5.02,0.00,29.6,28.0,00.0,38.3,31.4,05.9,0000.0,0001.87,0009.82,0001.01
2022-10-20 20:38:00,,0823.6,4.98,0.00,29.6,28.2,00.0,38.4,31.5,06.0,0000.0,0001.88,0009.58,0000.99
2022-10-20 20:39:00,,0823.5,5.01,0.00,29.6,28.3,00.0,38.4,31.5,06.2,0000.0,0001.90,0009.59,0000.97
2022-10-20 20:40:00,,0823.5,5.01,0.00,29.7,28.5,00.0,38.4,31.6,06.1,0000.0,0001.85,0008.94,0000.95
2022-10-20 20:41:00,,0823.5,5.02,0.00,29.7,28.6,00.0,38.4,31.6,06.4,0000.0,0001.83,0008.86,0000.92
2022-10-20 20:42:00,,0823.4,5.01,0.00,29.7,28.7,00.0,38.4,31.6,06.1,0000.0,0001.79,0008.50,0000.90
2022-10-20 20:43:00,,0823.4,5.01,0.00,29.8,28.2,00.0,38.5,31.7,06.2,0000.0,0001.77,0008.20,0000.89
2022-10-20 20:44:00,,0823.4,5.03,0.00,29.7,26.7,00.0,38.4,31.5,06.2,0000.0,0001.73,0007.17,0000.88
2022-10-20 20:45:00,,0823.4,5.00,0.00,29.7,26.1,00.0,38.3,31.5,05.7,0000.0,0001.67,0007.21,0000.87
2022-10-20 20:46:00,,0823.3,4.99,0.00,29.7,26.3,00.0,38.3,31.4,05.7,0000.0,0001.73,0007.57,0000.87
2022-10-20 20:47:00,,0823.4,5.00,0.00,29.6,26.7,00.0,38.3,31.2,05.8,0000.0,0001.73,0007.46,0000.85
2022-10-20 20:48:00,,0823.3,5.00,0.00,29.5,27.0,00.0,38.3,31.2,05.8,0000.0,0001.75,0007.32,0000.84
2022-10-20 20:49:00,,0823.3,5.03,0.00,29.5,27.3,00.0,38.3,31.3,05.8,0000.0,0001.76,0007.62,0000.83
2022-10-20 20:50:00,,0823.3,5.00,0.00,29.5,27.6,00.0,38.3,31.3,05.8,0000.0,0001.78,0008.00,0000.83
2022-10-20 20:51:00,,0823.4,5.02,0.00,29.6,27.9,00.0,38.3,31.3,06.0,0000.0,0001.73,0008.30,0000.81
2022-10-20 20:52:00,,0823.3,4.98,0.00,29.6,28.0,00.0,38.3,31.4,05.7,0000.0,0001.68,0008.13,0000.81
2022-10-20 20:53:00,,0823.4,5.02,0.00,29.6,28.2,00.0,38.3,31.4,05.8,0000.0,0001.64,0007.94,0000.81
2022-10-20 20:54:00,,0823.4,4.99,0.00,29.6,28.4,00.0,38.4,31.5,05.8,0000.0,0001.61,0007.78,0000.80
2022-10-20 20:55:00,,0823.3,4.99,0.00,29.7,28.5,00.0,38.4,31.6,05.7,0000.0,0001.55,0007.37,0000.79
2022-10-20 20:56:00,,0823.4,5.03,0.00,29.7,28.6,00.0,38.4,31.6,05.7,0000.0,0001.53,0006.76,0000.78
2022-10-20 20:57:00,,0823.4,4.98,0.00,29.8,28.6,00.0,38.4,31.7,05.6,0000.0,0001.46,0006.11,0000.79
2022-10-20 20:58:00,,0823.4,5.01,0.00,29.8,27.3,00.0,38.4,31.6,05.7,0000.0,0001.43,0006.29,0000.80
2022-10-20 20:59:00,,0823.3,4.97,0.00,29.7,26.2,00.0,38.4,31.5,05.7,0000.0,0001.41,0006.11,0000.83
